Time,TemperatureF,DewpointF,PressureIn,WindDirection,WindDirectionDegrees,WindSpeedMPH,WindSpeedGustMPH,Humidity,HourlyPrecipIn,Conditions,Clouds,dailyrainin,SoftwareType,DateUTC
2013-07-07 00:04:00,63.9,37.7,29.97,NNW,338,0.0,0.0,38,0.00,,,0.00,WUHU216HW,2013-07-07 04:04:00,
2013-07-07 00:09:00,63.5,30.6,29.97,NNW,338,1.1,1.1,29,0.00,,,0.00,WUHU216HW,2013-07-07 04:09:00,
2013-07-07 00:14:00,63.4,32.9,29.97,NNW,338,0.0,1.1,32,0.00,,,0.00,WUHU216HW,2013-07-07 04:14:00,
2013-07-07 00:19:00,63.4,32.9,29.97,NNW,338,0.0,1.1,32,0.00,,,0.00,WUHU216HW,2013-07-07 04:19:00,
2013-07-07 00:24:00,63.2,30.3,29.97,NNW,338,0.0,0.0,29,0.00,,,0.00,WUHU216HW,2013-07-07 04:24:00,
2013-07-07 00:29:00,63.0,26.2,29.96,NNW,338,0.7,0.7,25,0.00,,,0.00,WUHU216HW,2013-07-07 04:29:00,
2013-07-07 00:34:00,63.0,26.2,29.96,NNW,338,0.0,0.7,25,0.00,,,0.00,WUHU216HW,2013-07-07 04:34:00,
2013-07-07 00:39:00,63.0,29.2,29.96,NNW,338,0.0,0.7,28,0.00,,,0.00,WUHU216HW,2013-07-07 04:39:00,
2013-07-07 00:44:00,63.0,29.2,29.96,NNW,338,0.0,0.0,28,0.00,,,0.00,WUHU216HW,2013-07-07 04:44:00,
2013-07-07 00:49:00,62.6,27.9,29.96,NNW,338,0.4,0.4,27,0.00,,,0.00,WUHU216HW,2013-07-07 04:49:00,
2013-07-07 00:54:00,62.6,26.9,29.96,NNW,338,0.0,0.4,26,0.00,,,0.00,WUHU216HW,2013-07-07 04:54:00,
2013-07-07 00:59:00,62.5,22.9,29.96,NNW,338,0.4,0.4,22,0.00,,,0.00,WUHU216HW,2013-07-07 04:59:00,
2013-07-07 01:04:00,62.3,22.7,29.96,NNW,338,0.0,0.4,22,0.00,,,0.00,WUHU216HW,2013-07-07 05:04:00,
2013-07-07 01:09:00,62.3,24.7,29.96,NNW,338,0.0,0.0,24,0.00,,,0.00,WUHU216HW,2013-07-07 05:09:00,
2013-07-07 01:15:00,62.3,25.7,29.96,NNW,338,0.0,0.0,25,0.00,,,0.00,WUHU216HW,2013-07-07 05:15:00,
2013-07-07 01:20:00,62.3,26.6,29.96,NNW,338,0.0,0.2,26,0.00,,,0.00,WUHU216HW,2013-07-07 05:20:00,
2013-07-07 01:25:00,62.3,25.7,29.96,NNW,338,0.0,0.2,25,0.00,,,0.00,WUHU216HW,2013-07-07 05:25:00,
2013-07-07 01:30:00,62.5,25.7,29.95,NNW,338,0.0,0.0,25,0.00,,,0.00,WUHU216HW,2013-07-07 05:30:00,
2013-07-07 01:35:00,62.5,23.9,29.95,ENE,68,0.0,0.7,23,0.00,,,0.00,WUHU216HW,2013-07-07 05:35:00,
2013-07-07 01:40:00,62.6,23.9,29.96,NE,45,0.0,0.7,23,0.00,,,0.00,WUHU216HW,2013-07-07 05:40:00,
2013-07-07 01:45:00,62.6,23.9,29.96,NE,45,0.0,0.0,23,0.00,,,0.00,WUHU216HW,2013-07-07 05:45:00,
2013-07-07 01:50:00,62.6,23.1,29.96,NE,45,0.0,0.0,22,0.00,,,0.00,WUHU216HW,2013-07-07 05:50:00,
2013-07-07 01:55:00,62.8,23.1,29.96,NE,45,0.0,0.2,22,0.00,,,0.00,WUHU216HW,2013-07-07 05:55:00,
2013-07-07 02:00:00,62.8,22.1,29.96,NE,45,0.0,0.2,21,0.00,,,0.00,WUHU216HW,2013-07-07 06:00:00,
2013-07-07 02:05:00,62.8,22.1,29.96,NE,45,0.0,0.0,21,0.00,,,0.00,WUHU216HW,2013-07-07 06:05:00,
2013-07-07 02:10:00,63.0,22.3,29.96,NE,45,0.0,0.0,21,0.00,,,0.00,WUHU216HW,2013-07-07 06:10:00,
2013-07-07 02:15:00,63.0,19.8,29.95,NE,45,0.0,0.0,19,0.00,,,0.00,WUHU216HW,2013-07-07 06:15:00,
2013-07-07 02:20:00,63.0,18.2,29.95,NE,45,0.0,0.0,18,0.00,,,0.00,WUHU216HW,2013-07-07 06:20:00,
2013-07-07 02:25:00,63.2,16.7,29.95,NE,45,0.0,0.0,17,0.00,,,0.00,WUHU216HW,2013-07-07 06:25:00,
2013-07-07 02:30:00,63.0,13.5,29.95,NNE,23,0.0,0.0,15,0.00,,,0.00,WUHU216HW,2013-07-07 06:30:00,
2013-07-07 02:35:00,63.0,15.0,29.95,NNE,23,0.0,0.0,16,0.00,,,0.00,WUHU216HW,2013-07-07 06:35:00,
2013-07-07 02:40:00,63.0,13.5,29.95,NNE,23,0.0,0.0,15,0.00,,,0.00,WUHU216HW,2013-07-07 06:40:00,
2013-07-07 02:45:00,63.0,15.0,29.95,NNE,23,0.0,0.0,16,0.00,,,0.00,WUHU216HW,2013-07-07 06:45:00,
2013-07-07 02:50:00,63.0,13.5,29.95,NNE,23,0.0,0.0,15,0.00,,,0.00,WUHU216HW,2013-07-07 06:50:00,
2013-07-07 02:55:00,62.8,5.5,29.95,North,0,0.0,0.0,6,0.00,,,0.00,WUHU216HW,2013-07-07 06:55:00,
2013-07-07 03:00:00,62.5,5.2,29.95,North,0,0.0,0.0,2,0.00,,,0.00,WUHU216HW,2013-07-07 07:00:00,
2013-07-07 03:05:00,62.3,5.1,29.95,North,0,0.0,0.0,1,0.00,,,0.00,WUHU216HW,2013-07-07 07:05:00,
2013-07-07 03:10:00,62.3,5.1,29.95,North,0,0.0,0.0,1,0.00,,,0.00,WUHU216HW,2013-07-07 07:10:00,
2013-07-07 03:15:00,62.3,5.1,29.95,North,0,0.0,0.0,1,0.00,,,0.00,WUHU216HW,2013-07-07 07:15:00,
2013-07-07 03:20:00,62.3,5.1,29.95,North,0,0.0,0.0,1,0.00,,,0.00,WUHU216HW,2013-07-07 07:20:00,
2013-07-07 03:25:00,62.3,5.1,29.95,North,0,0.0,0.0,1,0.00,,,0.00,WUHU216HW,2013-07-07 07:25:00,
2013-07-07 03:30:00,62.3,5.1,29.94,North,0,0.0,0.0,1,0.00,,,0.00,WUHU216HW,2013-07-07 07:30:00,
2013-07-07 03:35:00,62.5,5.2,29.95,North,0,0.0,0.0,1,0.00,,,0.00,WUHU216HW,2013-07-07 07:35:00,
2013-07-07 03:40:00,62.5,5.2,29.95,North,0,0.0,0.0,1,0.00,,,0.00,WUHU216HW,2013-07-07 07:40:00,
2013-07-07 03:45:00,62.5,5.2,29.95,North,0,0.0,0.0,1,0.00,,,0.00,WUHU216HW,2013-07-07 07:45:00,
2013-07-07 03:50:00,62.6,5.4,29.94,NNE,23,0.0,0.0,3,0.00,,,0.00,WUHU216HW,2013-07-07 07:50:00,
2013-07-07 03:55:00,62.6,5.4,29.94,NNE,23,0.0,0.0,2,0.00,,,0.00,WUHU216HW,2013-07-07 07:55:00,
2013-07-07 04:00:00,62.8,5.5,29.94,North,0,0.0,0.0,3,0.00,,,0.00,WUHU216HW,2013-07-07 08:00:00,
2013-07-07 04:06:00,62.8,5.5,29.94,North,0,0.0,0.0,5,0.00,,,0.00,WUHU216HW,2013-07-07 08:06:00,
2013-07-07 04:11:00,62.8,5.5,29.94,North,0,0.0,0.0,6,0.00,,,0.00,WUHU216HW,2013-07-07 08:11:00,
2013-07-07 04:16:00,62.8,5.5,29.94,North,0,0.0,0.0,5,0.00,,,0.00,WUHU216HW,2013-07-07 08:16:00,
2013-07-07 04:21:00,62.8,5.5,29.94,North,0,0.0,0.0,6,0.00,,,0.00,WUHU216HW,2013-07-07 08:21:00,
2013-07-07 04:26:00,62.8,5.5,29.94,North,0,0.0,0.0,6,0.00,,,0.00,WUHU216HW,2013-07-07 08:26:00,
2013-07-07 04:31:00,63.0,5.7,29.94,NNE,23,0.0,0.0,6,0.00,,,0.00,WUHU216HW,2013-07-07 08:31:00,
2013-07-07 04:36:00,62.6,5.4,29.94,NNE,23,0.0,0.0,5,0.00,,,0.00,WUHU216HW,2013-07-07 08:36:00,
2013-07-07 04:41:00,62.6,5.4,29.94,NNE,23,0.0,0.0,6,0.00,,,0.00,WUHU216HW,2013-07-07 08:41:00,
2013-07-07 04:46:00,62.8,5.5,29.94,NNE,23,0.0,0.0,7,0.00,,,0.00,WUHU216HW,2013-07-07 08:46:00,
2013-07-07 04:51:00,62.8,5.5,29.94,NNE,23,0.0,0.0,6,0.00,,,0.00,WUHU216HW,2013-07-07 08:51:00,
2013-07-07 04:56:00,62.6,5.4,29.94,NNE,23,0.0,0.0,6,0.00,,,0.00,WUHU216HW,2013-07-07 08:56:00,
2013-07-07 05:01:00,62.6,5.4,29.94,NNE,23,0.0,0.0,6,0.00,,,0.00,WUHU216HW,2013-07-07 09:01:00,
2013-07-07 05:06:00,62.8,5.5,29.94,NNE,23,0.0,0.0,7,0.00,,,0.00,WUHU216HW,2013-07-07 09:06:00,
2013-07-07 05:11:00,62.8,5.5,29.94,NNE,23,0.0,0.0,7,0.00,,,0.00,WUHU216HW,2013-07-07 09:11:00,
2013-07-07 05:16:00,62.8,5.5,29.94,North,0,0.0,0.0,8,0.00,,,0.00,WUHU216HW,2013-07-07 09:16:00,
2013-07-07 05:21:00,63.0,5.7,29.94,ENE,68,0.0,0.0,8,0.00,,,0.00,WUHU216HW,2013-07-07 09:21:00,
2013-07-07 05:26:00,63.0,7.2,29.94,ENE,68,0.0,0.0,11,0.00,,,0.00,WUHU216HW,2013-07-07 09:26:00,
2013-07-07 05:31:00,63.0,5.7,29.94,NE,45,0.0,0.0,10,0.00,,,0.00,WUHU216HW,2013-07-07 09:31:00,
2013-07-07 05:36:00,63.0,5.7,29.94,NNE,23,0.0,0.0,10,0.00,,,0.00,WUHU216HW,2013-07-07 09:36:00,
2013-07-07 05:41:00,62.6,5.4,29.94,North,0,0.0,0.0,6,0.00,,,0.00,WUHU216HW,2013-07-07 09:41:00,
2013-07-07 05:46:00,62.6,5.4,29.94,North,0,0.0,0.0,5,0.00,,,0.00,WUHU216HW,2013-07-07 09:46:00,
2013-07-07 05:51:00,62.6,5.4,29.94,North,0,0.0,0.0,6,0.00,,,0.00,WUHU216HW,2013-07-07 09:51:00,
2013-07-07 05:56:00,62.8,5.5,29.94,North,0,0.0,0.0,6,0.00,,,0.00,WUHU216HW,2013-07-07 09:56:00,
2013-07-07 06:01:00,62.8,5.5,29.94,North,0,0.0,0.0,5,0.00,,,0.00,WUHU216HW,2013-07-07 10:01:00,
2013-07-07 06:06:00,62.8,5.5,29.94,North,0,0.0,0.0,5,0.00,,,0.00,WUHU216HW,2013-07-07 10:06:00,
2013-07-07 06:11:00,63.0,5.7,29.93,North,0,0.0,0.0,5,0.00,,,0.00,WUHU216HW,2013-07-07 10:11:00,
2013-07-07 06:16:00,63.0,5.7,29.94,North,0,0.0,0.0,3,0.00,,,0.00,WUHU216HW,2013-07-07 10:16:00,
2013-07-07 06:21:00,62.8,5.5,29.94,North,0,0.0,0.0,1,0.00,,,0.00,WUHU216HW,2013-07-07 10:21:00,
2013-07-07 06:26:00,62.6,5.4,29.94,North,0,0.0,0.0,1,0.00,,,0.00,WUHU216HW,2013-07-07 10:26:00,
2013-07-07 06:31:00,62.6,5.4,29.94,North,0,0.0,0.0,1,0.00,,,0.00,WUHU216HW,2013-07-07 10:31:00,
2013-07-07 06:36:00,62.6,5.4,29.94,North,0,0.0,0.0,1,0.00,,,0.00,WUHU216HW,2013-07-07 10:36:00,
2013-07-07 06:41:00,63.0,5.7,29.94,North,0,0.0,0.0,1,0.00,,,0.00,WUHU216HW,2013-07-07 10:41:00,
2013-07-07 06:46:00,62.8,5.5,29.94,North,0,0.0,0.0,1,0.00,,,0.00,WUHU216HW,2013-07-07 10:46:00,
2013-07-07 06:51:00,63.0,5.7,29.94,North,0,0.0,0.0,1,0.00,,,0.00,WUHU216HW,2013-07-07 10:51:00,
2013-07-07 06:56:00,63.0,5.7,29.94,North,0,0.0,0.0,1,0.00,,,0.00,WUHU216HW,2013-07-07 10:56:00,
2013-07-07 07:02:00,63.2,5.8,29.94,North,0,0.0,0.0,1,0.00,,,0.00,WUHU216HW,2013-07-07 11:02:00,
2013-07-07 07:07:00,63.4,6.0,29.94,North,0,0.0,0.0,1,0.00,,,0.00,WUHU216HW,2013-07-07 11:07:00,
2013-07-07 07:12:00,63.4,6.0,29.94,North,0,0.0,0.0,1,0.00,,,0.00,WUHU216HW,2013-07-07 11:12:00,
2013-07-07 07:17:00,63.4,6.0,29.94,North,0,0.0,0.0,1,0.00,,,0.00,WUHU216HW,2013-07-07 11:17:00,
2013-07-07 07:22:00,63.9,6.3,29.95,North,0,0.0,0.0,1,0.00,,,0.00,WUHU216HW,2013-07-07 11:22:00,
2013-07-07 07:27:00,64.3,6.6,29.95,NE,45,0.0,0.0,1,0.00,,,0.00,WUHU216HW,2013-07-07 11:27:00,
2013-07-07 07:32:00,64.8,6.9,29.95,NE,45,0.0,0.0,1,0.00,,,0.00,WUHU216HW,2013-07-07 11:32:00,
2013-07-07 07:37:00,65.2,7.2,29.95,NE,45,0.0,0.0,4,0.00,,,0.00,WUHU216HW,2013-07-07 11:37:00,
2013-07-07 07:42:00,65.5,7.6,29.95,NE,45,0.0,0.0,7,0.00,,,0.00,WUHU216HW,2013-07-07 11:42:00,
2013-07-07 07:47:00,66.1,17.5,29.95,NNE,23,0.0,0.0,16,0.00,,,0.00,WUHU216HW,2013-07-07 11:47:00,
2013-07-07 07:52:00,66.1,19.1,29.95,NE,45,0.0,0.0,17,0.00,,,0.00,WUHU216HW,2013-07-07 11:52:00,
2013-07-07 07:57:00,66.6,19.5,29.95,ENE,68,0.0,0.0,17,0.00,,,0.00,WUHU216HW,2013-07-07 11:57:00,
2013-07-07 08:02:00,67.0,23.1,29.96,ENE,68,0.0,0.0,19,0.00,,,0.00,WUHU216HW,2013-07-07 12:02:00,
2013-07-07 08:07:00,67.5,33.0,29.96,ENE,68,0.0,0.0,28,0.00,,,0.00,WUHU216HW,2013-07-07 12:07:00,
2013-07-07 08:12:00,67.9,31.3,29.96,ENE,68,0.0,0.0,26,0.00,,,0.00,WUHU216HW,2013-07-07 12:12:00,
2013-07-07 08:17:00,68.4,34.8,29.96,SE,135,0.4,0.4,29,0.00,,,0.00,WUHU216HW,2013-07-07 12:17:00,
2013-07-07 08:22:00,68.8,42.0,29.95,ESE,113,0.4,1.1,38,0.00,,,0.00,WUHU216HW,2013-07-07 12:22:00,
2013-07-07 08:27:00,69.1,42.3,29.96,ESE,113,0.7,1.1,38,0.00,,,0.00,WUHU216HW,2013-07-07 12:27:00,
2013-07-07 08:32:00,70.2,45.4,29.96,North,0,0.0,1.1,41,0.00,,,0.00,WUHU216HW,2013-07-07 12:32:00,
2013-07-07 08:37:00,70.7,54.3,29.95,NW,315,1.6,1.6,56,0.00,,,0.00,WUHU216HW,2013-07-07 12:37:00,
2013-07-07 08:42:00,70.2,54.3,29.95,NW,315,1.8,1.8,57,0.00,,,0.00,WUHU216HW,2013-07-07 12:42:00,
2013-07-07 08:47:00,70.0,52.1,29.95,North,0,0.0,1.8,53,0.00,,,0.00,WUHU216HW,2013-07-07 12:47:00,
2013-07-07 08:52:00,70.4,52.9,29.95,North,0,0.4,1.1,54,0.00,,,0.00,WUHU216HW,2013-07-07 12:52:00,
2013-07-07 08:57:00,70.6,54.5,29.95,ENE,68,0.0,0.9,57,0.00,,,0.00,WUHU216HW,2013-07-07 12:57:00,
2013-07-07 09:02:00,70.9,53.9,29.95,ESE,113,0.7,1.1,55,0.00,,,0.00,WUHU216HW,2013-07-07 13:02:00,
2013-07-07 09:07:00,72.4,55.7,29.95,East,90,0.0,1.3,56,0.00,,,0.00,WUHU216HW,2013-07-07 13:07:00,
2013-07-07 09:12:00,72.7,58.1,29.95,North,0,0.0,1.3,60,0.00,,,0.00,WUHU216HW,2013-07-07 13:12:00,
2013-07-07 09:17:00,72.5,59.7,29.95,North,0,1.1,1.1,64,0.00,,,0.00,WUHU216HW,2013-07-07 13:17:00,
2013-07-07 09:22:00,72.2,60.2,29.94,NNW,338,0.7,1.6,66,0.00,,,0.00,WUHU216HW,2013-07-07 13:22:00,
2013-07-07 09:27:00,72.0,59.6,29.94,North,0,0.9,2.0,65,0.00,,,0.00,WUHU216HW,2013-07-07 13:27:00,
2013-07-07 09:32:00,72.2,58.9,29.93,NNW,338,0.9,2.0,63,0.00,,,0.00,WUHU216HW,2013-07-07 13:32:00,
2013-07-07 09:37:00,72.4,58.6,29.93,NW,315,1.6,1.6,62,0.00,,,0.00,WUHU216HW,2013-07-07 13:37:00,
2013-07-07 09:42:00,72.4,59.1,29.93,NW,315,1.1,2.0,63,0.00,,,0.00,WUHU216HW,2013-07-07 13:42:00,
2013-07-07 09:47:00,72.4,58.1,29.93,NW,315,1.1,2.0,61,0.00,,,0.00,WUHU216HW,2013-07-07 13:47:00,
2013-07-07 09:52:00,72.7,57.5,29.93,NNW,338,0.4,1.3,59,0.00,,,0.00,WUHU216HW,2013-07-07 13:52:00,
2013-07-07 09:57:00,73.8,59.0,29.93,WSW,248,0.0,0.4,60,0.00,,,0.00,WUHU216HW,2013-07-07 13:57:00,
2013-07-07 10:02:00,74.5,59.8,29.93,South,180,0.0,0.4,60,0.00,,,0.00,WUHU216HW,2013-07-07 14:02:00,
2013-07-07 10:07:00,75.2,60.5,29.93,South,180,0.0,0.4,60,0.00,,,0.00,WUHU216HW,2013-07-07 14:07:00,
2013-07-07 10:12:00,76.0,62.5,29.93,SSE,158,0.0,0.4,63,0.00,,,0.00,WUHU216HW,2013-07-07 14:12:00,
2013-07-07 10:17:00,76.7,64.0,29.93,NE,45,0.2,0.4,65,0.00,,,0.00,WUHU216HW,2013-07-07 14:17:00,
2013-07-07 10:22:00,77.0,64.8,29.94,NE,45,0.7,0.9,66,0.00,,,0.00,WUHU216HW,2013-07-07 14:22:00,
2013-07-07 10:27:00,77.2,65.4,29.94,West,270,0.0,0.9,67,0.00,,,0.00,WUHU216HW,2013-07-07 14:27:00,
2013-07-07 10:33:00,77.8,65.9,29.94,NW,315,1.3,1.3,67,0.00,,,0.00,WUHU216HW,2013-07-07 14:33:00,
2013-07-07 10:38:00,77.8,65.9,29.93,WNW,293,0.7,1.3,67,0.00,,,0.00,WUHU216HW,2013-07-07 14:38:00,
2013-07-07 10:43:00,78.1,66.2,29.93,WNW,293,0.4,1.3,67,0.00,,,0.00,WUHU216HW,2013-07-07 14:43:00,
2013-07-07 10:48:00,78.5,66.6,29.93,WNW,293,0.7,1.1,67,0.00,,,0.00,WUHU216HW,2013-07-07 14:48:00,
2013-07-07 10:53:00,78.5,66.6,29.93,WNW,293,0.0,1.1,67,0.00,,,0.00,WUHU216HW,2013-07-07 14:53:00,
2013-07-07 10:58:00,78.7,66.8,29.93,WNW,293,0.7,0.7,67,0.00,,,0.00,WUHU216HW,2013-07-07 14:58:00,
2013-07-07 11:03:00,78.8,67.3,29.93,WNW,293,0.4,0.9,68,0.00,,,0.00,WUHU216HW,2013-07-07 15:03:00,
2013-07-07 11:08:00,78.8,67.0,29.93,WNW,293,0.2,1.1,67,0.00,,,0.00,WUHU216HW,2013-07-07 15:08:00,
2013-07-07 11:13:00,79.0,67.2,29.93,WNW,293,0.0,1.1,67,0.00,,,0.00,WUHU216HW,2013-07-07 15:13:00,
2013-07-07 11:18:00,79.4,67.4,29.93,WNW,293,0.0,0.2,67,0.00,,,0.00,WUHU216HW,2013-07-07 15:18:00,
2013-07-07 11:23:00,79.9,68.0,29.93,WNW,293,0.0,0.0,67,0.00,,,0.00,WUHU216HW,2013-07-07 15:23:00,
2013-07-07 11:28:00,80.6,68.7,29.93,WNW,293,0.7,0.7,67,0.00,,,0.00,WUHU216HW,2013-07-07 15:28:00,
2013-07-07 11:33:00,81.0,69.0,29.93,SE,135,0.7,0.9,67,0.00,,,0.00,WUHU216HW,2013-07-07 15:33:00,
2013-07-07 11:38:00,81.7,69.7,29.93,SE,135,0.7,1.8,67,0.00,,,0.00,WUHU216HW,2013-07-07 15:38:00,
2013-07-07 11:43:00,82.8,71.1,29.93,SE,135,0.9,1.8,68,0.00,,,0.00,WUHU216HW,2013-07-07 15:43:00,
2013-07-07 11:48:00,83.5,71.8,29.93,SW,225,0.9,1.8,68,0.00,,,0.00,WUHU216HW,2013-07-07 15:48:00,
2013-07-07 11:53:00,83.7,71.1,29.93,SE,135,0.0,0.9,66,0.00,,,0.00,WUHU216HW,2013-07-07 15:53:00,
2013-07-07 11:58:00,83.9,71.7,29.93,WSW,248,0.4,0.9,67,0.00,,,0.00,WUHU216HW,2013-07-07 15:58:00,
2013-07-07 12:03:00,84.2,72.1,29.92,NNE,23,0.0,0.9,67,0.00,,,0.00,WUHU216HW,2013-07-07 16:03:00,
2013-07-07 12:08:00,83.9,71.7,29.92,WSW,248,0.0,0.9,67,0.00,,,0.00,WUHU216HW,2013-07-07 16:08:00,
2013-07-07 12:13:00,83.7,72.0,29.92,WSW,248,0.4,0.9,68,0.00,,,0.00,WUHU216HW,2013-07-07 16:13:00,
2013-07-07 12:18:00,83.3,71.6,29.92,WSW,248,0.0,0.7,68,0.00,,,0.00,WUHU216HW,2013-07-07 16:18:00,
2013-07-07 12:23:00,83.3,71.6,29.92,WSW,248,0.0,0.7,68,0.00,,,0.00,WUHU216HW,2013-07-07 16:23:00,
2013-07-07 12:28:00,83.3,71.6,29.92,WSW,248,0.0,0.4,68,0.00,,,0.00,WUHU216HW,2013-07-07 16:28:00,
2013-07-07 12:33:00,83.5,71.8,29.92,WSW,248,0.4,0.4,68,0.00,,,0.00,WUHU216HW,2013-07-07 16:33:00,
2013-07-07 12:38:00,83.7,72.0,29.92,WSW,248,0.0,0.4,68,0.00,,,0.00,WUHU216HW,2013-07-07 16:38:00,
2013-07-07 12:43:00,83.9,72.2,29.92,WSW,248,0.0,0.2,68,0.00,,,0.00,WUHU216HW,2013-07-07 16:43:00,
2013-07-07 12:48:00,84.4,72.7,29.91,South,180,0.4,0.4,68,0.00,,,0.00,WUHU216HW,2013-07-07 16:48:00,
2013-07-07 12:53:00,84.8,73.1,29.91,WSW,248,0.4,1.1,68,0.00,,,0.00,WUHU216HW,2013-07-07 16:53:00,
2013-07-07 12:58:00,85.0,73.3,29.91,SW,225,0.7,1.1,68,0.00,,,0.00,WUHU216HW,2013-07-07 16:58:00,
2013-07-07 13:03:00,85.0,73.3,29.91,SW,225,0.0,0.9,68,0.00,,,0.00,WUHU216HW,2013-07-07 17:03:00,
2013-07-07 13:08:00,84.8,73.1,29.90,SSW,203,0.4,0.9,68,0.00,,,0.00,WUHU216HW,2013-07-07 17:08:00,
2013-07-07 13:13:00,84.8,73.1,29.91,South,180,0.4,0.7,68,0.00,,,0.00,WUHU216HW,2013-07-07 17:13:00,
2013-07-07 13:18:00,85.7,73.5,29.90,ESE,113,1.3,1.6,67,0.00,,,0.00,WUHU216HW,2013-07-07 17:18:00,
2013-07-07 13:24:00,86.4,73.3,29.90,SE,135,6.5,6.5,65,0.00,,,0.00,WUHU216HW,2013-07-07 17:24:00,
2013-07-07 13:29:00,86.4,73.3,29.90,WSW,248,1.1,6.5,65,0.00,,,0.00,WUHU216HW,2013-07-07 17:29:00,
2013-07-07 13:34:00,85.9,72.7,29.90,SE,135,1.1,3.1,65,0.00,,,0.00,WUHU216HW,2013-07-07 17:34:00,
2013-07-07 13:39:00,86.0,73.4,29.90,East,90,1.1,3.1,66,0.00,,,0.00,WUHU216HW,2013-07-07 17:39:00,
2013-07-07 13:44:00,86.2,73.1,29.90,SSE,158,1.3,3.1,65,0.00,,,0.00,WUHU216HW,2013-07-07 17:44:00,
2013-07-07 13:49:00,86.2,73.1,29.90,SW,225,0.7,4.3,65,0.00,,,0.00,WUHU216HW,2013-07-07 17:49:00,
2013-07-07 13:54:00,86.2,73.1,29.89,SE,135,1.8,4.3,65,0.00,,,0.00,WUHU216HW,2013-07-07 17:54:00,
2013-07-07 13:59:00,86.9,72.4,29.89,SE,135,3.4,3.4,62,0.00,,,0.00,WUHU216HW,2013-07-07 17:59:00,
2013-07-07 14:04:00,87.8,71.8,29.89,ESE,113,3.4,4.0,59,0.00,,,0.00,WUHU216HW,2013-07-07 18:04:00,
2013-07-07 14:09:00,88.2,74.1,29.88,SE,135,2.5,4.0,63,0.00,,,0.00,WUHU216HW,2013-07-07 18:09:00,
2013-07-07 14:14:00,88.4,74.3,29.89,WSW,248,0.4,4.0,63,0.00,,,0.00,WUHU216HW,2013-07-07 18:14:00,
2013-07-07 14:19:00,87.8,72.8,29.88,South,180,2.0,2.7,61,0.00,,,0.00,WUHU216HW,2013-07-07 18:19:00,
2013-07-07 14:24:00,87.5,72.9,29.88,SSE,158,2.5,2.7,62,0.00,,,0.00,WUHU216HW,2013-07-07 18:24:00,
2013-07-07 14:29:00,87.5,73.8,29.88,ESE,113,1.1,2.5,64,0.00,,,0.00,WUHU216HW,2013-07-07 18:29:00,
2013-07-07 14:34:00,87.3,73.6,29.88,SW,225,0.4,1.8,64,0.00,,,0.00,WUHU216HW,2013-07-07 18:34:00,
2013-07-07 14:39:00,86.8,73.6,29.88,ENE,68,0.0,1.8,65,0.00,,,0.00,WUHU216HW,2013-07-07 18:39:00,
2013-07-07 14:44:00,86.8,74.1,29.87,SE,135,1.1,1.3,66,0.00,,,0.00,WUHU216HW,2013-07-07 18:44:00,
2013-07-07 14:49:00,87.7,74.4,29.87,SW,225,0.9,1.3,65,0.00,,,0.00,WUHU216HW,2013-07-07 18:49:00,
2013-07-07 14:54:00,87.5,74.3,29.87,North,0,0.0,1.3,65,0.00,,,0.00,WUHU216HW,2013-07-07 18:54:00,
2013-07-07 14:59:00,86.8,73.6,29.87,North,0,0.0,0.9,65,0.00,,,0.00,WUHU216HW,2013-07-07 18:59:00,
2013-07-07 15:04:00,86.0,72.9,29.87,North,0,0.0,0.0,65,0.00,,,0.00,WUHU216HW,2013-07-07 19:04:00,
2013-07-07 15:09:00,85.9,73.2,29.86,North,0,0.0,0.0,66,0.00,,,0.00,WUHU216HW,2013-07-07 19:09:00,
2013-07-07 15:14:00,86.0,73.8,29.86,North,0,0.0,0.0,67,0.00,,,0.00,WUHU216HW,2013-07-07 19:14:00,
2013-07-07 15:19:00,85.7,73.5,29.86,North,0,0.0,0.0,67,0.00,,,0.00,WUHU216HW,2013-07-07 19:19:00,
2013-07-07 15:24:00,85.5,73.4,29.86,North,0,0.0,0.0,67,0.00,,,0.00,WUHU216HW,2013-07-07 19:24:00,
2013-07-07 15:29:00,85.0,72.8,29.86,North,0,0.0,0.0,67,0.00,,,0.00,WUHU216HW,2013-07-07 19:29:00,
2013-07-07 15:34:00,84.6,72.5,29.86,North,0,0.0,0.0,67,0.00,,,0.00,WUHU216HW,2013-07-07 19:34:00,
2013-07-07 15:39:00,84.6,72.9,29.86,North,0,0.0,0.0,68,0.00,,,0.00,WUHU216HW,2013-07-07 19:39:00,
2013-07-07 15:44:00,85.0,73.3,29.86,North,0,0.0,0.0,68,0.00,,,0.00,WUHU216HW,2013-07-07 19:44:00,
2013-07-07 15:49:00,85.5,73.8,29.86,North,0,0.0,0.0,68,0.00,,,0.00,WUHU216HW,2013-07-07 19:49:00,
2013-07-07 15:54:00,86.0,73.8,29.86,North,0,0.0,0.0,67,0.00,,,0.00,WUHU216HW,2013-07-07 19:54:00,
2013-07-07 15:59:00,86.9,74.7,29.86,North,0,0.0,0.0,67,0.00,,,0.00,WUHU216HW,2013-07-07 19:59:00,
2013-07-07 16:04:00,86.9,74.3,29.85,North,0,0.0,0.0,66,0.00,,,0.00,WUHU216HW,2013-07-07 20:04:00,
2013-07-07 16:09:00,87.1,74.3,29.85,North,0,0.0,0.0,66,0.00,,,0.00,WUHU216HW,2013-07-07 20:09:00,
2013-07-07 16:15:00,87.1,74.3,29.86,North,0,0.0,0.0,66,0.00,,,0.00,WUHU216HW,2013-07-07 20:15:00,
2013-07-07 16:20:00,88.2,75.4,29.85,North,0,0.0,0.0,66,0.00,,,0.00,WUHU216HW,2013-07-07 20:20:00,
2013-07-07 16:25:00,88.2,75.4,29.85,North,0,0.0,0.0,66,0.00,,,0.00,WUHU216HW,2013-07-07 20:25:00,
2013-07-07 16:30:00,88.2,74.5,29.85,North,0,0.0,0.0,64,0.00,,,0.00,WUHU216HW,2013-07-07 20:30:00,
2013-07-07 16:35:00,88.2,75.0,29.85,North,0,0.0,0.0,65,0.00,,,0.00,WUHU216HW,2013-07-07 20:35:00,
2013-07-07 16:40:00,87.8,74.2,29.85,North,0,0.0,0.0,64,0.00,,,0.00,WUHU216HW,2013-07-07 20:40:00,
2013-07-07 16:45:00,88.0,74.8,29.84,North,0,0.0,0.0,65,0.00,,,0.00,WUHU216HW,2013-07-07 20:45:00,
2013-07-07 16:50:00,88.2,75.0,29.84,North,0,0.0,0.0,65,0.00,,,0.00,WUHU216HW,2013-07-07 20:50:00,
2013-07-07 16:55:00,87.8,74.6,29.84,North,0,0.0,0.0,65,0.00,,,0.00,WUHU216HW,2013-07-07 20:55:00,
2013-07-07 17:00:00,87.5,74.7,29.84,North,0,0.0,0.0,66,0.00,,,0.00,WUHU216HW,2013-07-07 21:00:00,
2013-07-07 17:05:00,87.5,73.8,29.84,North,0,0.0,0.0,64,0.00,,,0.00,WUHU216HW,2013-07-07 21:05:00,
2013-07-07 17:10:00,87.5,74.7,29.83,North,0,0.0,0.0,66,0.00,,,0.00,WUHU216HW,2013-07-07 21:10:00,
2013-07-07 17:15:00,86.0,73.4,29.83,North,0,0.0,0.0,66,0.00,,,0.00,WUHU216HW,2013-07-07 21:15:00,
2013-07-07 17:20:00,84.6,72.5,29.83,North,0,0.0,0.0,67,0.00,,,0.00,WUHU216HW,2013-07-07 21:20:00,
2013-07-07 17:25:00,83.5,71.4,29.83,North,0,0.0,0.0,67,0.00,,,0.00,WUHU216HW,2013-07-07 21:25:00,
2013-07-07 17:30:00,83.2,71.5,29.83,North,0,0.0,0.0,68,0.00,,,0.00,WUHU216HW,2013-07-07 21:30:00,
2013-07-07 17:35:00,82.6,71.4,29.83,North,0,0.0,0.0,69,0.00,,,0.00,WUHU216HW,2013-07-07 21:35:00,
2013-07-07 17:40:00,82.4,71.2,29.83,North,0,0.0,0.0,69,0.00,,,0.00,WUHU216HW,2013-07-07 21:40:00,
2013-07-07 17:45:00,82.4,71.2,29.83,North,0,0.0,0.0,69,0.00,,,0.00,WUHU216HW,2013-07-07 21:45:00,
2013-07-07 17:50:00,82.3,70.6,29.83,North,0,0.0,0.0,68,0.00,,,0.00,WUHU216HW,2013-07-07 21:50:00,
2013-07-07 17:55:00,82.1,70.4,29.82,North,0,0.0,0.0,68,0.00,,,0.00,WUHU216HW,2013-07-07 21:55:00,
2013-07-07 18:00:00,81.9,70.3,29.82,North,0,0.0,0.0,68,0.00,,,0.00,WUHU216HW,2013-07-07 22:00:00,
2013-07-07 18:05:00,81.9,70.8,29.83,North,0,0.0,0.0,69,0.00,,,0.00,WUHU216HW,2013-07-07 22:05:00,
2013-07-07 18:10:00,83.7,72.9,29.83,North,0,0.0,0.0,70,0.00,,,0.00,WUHU216HW,2013-07-07 22:10:00,
2013-07-07 18:15:00,85.0,73.3,29.83,North,0,0.0,0.0,68,0.00,,,0.00,WUHU216HW,2013-07-07 22:15:00,
2013-07-07 18:20:00,85.0,73.3,29.83,North,0,0.0,0.0,68,0.00,,,0.00,WUHU216HW,2013-07-07 22:20:00,
2013-07-07 18:25:00,84.6,72.9,29.83,North,0,0.0,0.0,68,0.00,,,0.00,WUHU216HW,2013-07-07 22:25:00,
2013-07-07 18:30:00,84.1,72.4,29.83,North,0,0.0,0.0,68,0.00,,,0.00,WUHU216HW,2013-07-07 22:30:00,
2013-07-07 18:35:00,83.5,72.3,29.83,North,0,0.0,0.0,69,0.00,,,0.00,WUHU216HW,2013-07-07 22:35:00,
2013-07-07 18:40:00,83.2,71.9,29.83,North,0,0.0,0.0,69,0.00,,,0.00,WUHU216HW,2013-07-07 22:40:00,
2013-07-07 18:45:00,83.2,71.9,29.83,North,0,0.0,0.0,69,0.00,,,0.00,WUHU216HW,2013-07-07 22:45:00,
2013-07-07 18:51:00,83.0,72.2,29.84,North,0,0.0,0.0,70,0.00,,,0.00,WUHU216HW,2013-07-07 22:51:00,
2013-07-07 18:56:00,82.8,72.0,29.84,North,0,0.0,0.0,70,0.00,,,0.00,WUHU216HW,2013-07-07 22:56:00,
2013-07-07 19:01:00,82.6,71.8,29.84,North,0,0.0,0.0,70,0.00,,,0.00,WUHU216HW,2013-07-07 23:01:00,
2013-07-07 19:06:00,82.1,70.8,29.83,North,0,0.0,0.0,69,0.00,,,0.00,WUHU216HW,2013-07-07 23:06:00,
2013-07-07 19:11:00,81.7,70.6,29.83,North,0,0.0,0.0,69,0.00,,,0.00,WUHU216HW,2013-07-07 23:11:00,
2013-07-07 19:16:00,81.4,70.2,29.83,North,0,0.0,0.0,69,0.00,,,0.00,WUHU216HW,2013-07-07 23:16:00,
2013-07-07 19:21:00,80.6,68.7,29.83,North,0,0.0,0.0,67,0.00,,,0.00,WUHU216HW,2013-07-07 23:21:00,
2013-07-07 19:26:00,79.6,66.8,29.83,North,0,0.0,0.0,65,0.00,,,0.00,WUHU216HW,2013-07-07 23:26:00,
2013-07-07 19:31:00,79.0,66.7,29.84,North,0,0.0,0.0,66,0.00,,,0.00,WUHU216HW,2013-07-07 23:31:00,
2013-07-07 19:36:00,78.8,66.1,29.84,North,0,0.0,0.0,65,0.00,,,0.00,WUHU216HW,2013-07-07 23:36:00,
2013-07-07 19:41:00,78.7,65.9,29.84,North,0,0.0,0.0,65,0.00,,,0.00,WUHU216HW,2013-07-07 23:41:00,
2013-07-07 19:46:00,78.3,65.5,29.84,North,0,0.0,0.0,65,0.00,,,0.00,WUHU216HW,2013-07-07 23:46:00,
2013-07-07 19:51:00,77.8,65.1,29.84,North,0,0.0,0.0,65,0.00,,,0.00,WUHU216HW,2013-07-07 23:51:00,
2013-07-07 19:56:00,77.4,63.8,29.84,North,0,0.0,0.0,63,0.00,,,0.00,WUHU216HW,2013-07-07 23:56:00,
2013-07-07 20:01:00,77.2,63.2,29.84,North,0,0.0,0.0,62,0.00,,,0.00,WUHU216HW,2013-07-08 00:01:00,
2013-07-07 20:06:00,77.0,63.5,29.84,North,0,0.0,0.0,63,0.00,,,0.00,WUHU216HW,2013-07-08 00:06:00,
2013-07-07 20:11:00,76.9,63.3,29.84,North,0,0.0,0.0,63,0.00,,,0.00,WUHU216HW,2013-07-08 00:11:00,
2013-07-07 20:16:00,76.7,63.5,29.85,North,0,0.0,0.0,64,0.00,,,0.00,WUHU216HW,2013-07-08 00:16:00,
2013-07-07 20:21:00,76.3,62.4,29.85,North,0,0.0,0.0,62,0.00,,,0.00,WUHU216HW,2013-07-08 00:21:00,
2013-07-07 20:26:00,76.0,62.5,29.85,North,0,0.0,0.0,63,0.00,,,0.00,WUHU216HW,2013-07-08 00:26:00,
2013-07-07 20:31:00,75.6,62.6,29.85,North,0,0.0,0.0,64,0.00,,,0.00,WUHU216HW,2013-07-08 00:31:00,
2013-07-07 20:36:00,75.2,61.7,29.85,North,0,0.0,0.0,63,0.00,,,0.00,WUHU216HW,2013-07-08 00:36:00,
2013-07-07 20:41:00,74.7,60.9,29.85,North,0,0.0,0.0,62,0.00,,,0.00,WUHU216HW,2013-07-08 00:41:00,
2013-07-07 20:46:00,74.2,54.4,29.85,North,0,0.0,0.0,50,0.00,,,0.00,WUHU216HW,2013-07-08 00:46:00,
2013-07-07 20:51:00,73.6,53.2,29.85,North,0,0.0,0.0,49,0.00,,,0.00,WUHU216HW,2013-07-08 00:51:00,
2013-07-07 20:56:00,73.4,48.9,29.85,North,0,0.0,0.0,42,0.00,,,0.00,WUHU216HW,2013-07-08 00:56:00,
2013-07-07 21:01:00,73.4,52.5,29.85,North,0,0.0,0.0,48,0.00,,,0.00,WUHU216HW,2013-07-08 01:01:00,
2013-07-07 21:06:00,73.4,54.2,29.86,North,0,0.0,0.0,51,0.00,,,0.00,WUHU216HW,2013-07-08 01:06:00,
2013-07-07 21:11:00,73.4,55.2,29.86,North,0,0.0,0.0,53,0.00,,,0.00,WUHU216HW,2013-07-08 01:11:00,
2013-07-07 21:16:00,73.4,55.2,29.87,North,0,0.0,0.0,53,0.00,,,0.00,WUHU216HW,2013-07-08 01:16:00,
2013-07-07 21:21:00,73.3,50.0,29.87,North,0,0.0,0.0,44,0.00,,,0.00,WUHU216HW,2013-07-08 01:21:00,
2013-07-07 21:26:00,73.1,49.8,29.87,North,0,0.0,0.0,44,0.00,,,0.00,WUHU216HW,2013-07-08 01:26:00,
2013-07-07 21:31:00,72.7,50.1,29.87,North,0,0.0,0.0,45,0.00,,,0.00,WUHU216HW,2013-07-08 01:31:00,
2013-07-07 21:36:00,72.5,51.7,29.87,North,0,0.0,0.0,48,0.00,,,0.00,WUHU216HW,2013-07-08 01:36:00,
2013-07-07 21:41:00,72.4,52.1,29.86,North,0,0.0,0.0,49,0.00,,,0.00,WUHU216HW,2013-07-08 01:41:00,
2013-07-07 21:46:00,72.4,50.9,29.87,North,0,0.0,0.0,47,0.00,,,0.00,WUHU216HW,2013-07-08 01:46:00,
2013-07-07 21:51:00,72.2,50.8,29.87,North,0,0.0,0.0,47,0.00,,,0.00,WUHU216HW,2013-07-08 01:51:00,
2013-07-07 21:56:00,72.0,50.0,29.87,North,0,0.0,0.0,46,0.00,,,0.00,WUHU216HW,2013-07-08 01:56:00,
2013-07-07 22:02:00,72.0,44.9,29.87,North,0,0.0,0.0,38,0.00,,,0.00,WUHU216HW,2013-07-08 02:02:00,
2013-07-07 22:07:00,71.8,47.4,29.88,North,0,0.0,0.0,42,0.00,,,0.00,WUHU216HW,2013-07-08 02:07:00,
2013-07-07 22:12:00,71.8,48.1,29.88,North,0,0.0,0.0,43,0.00,,,0.00,WUHU216HW,2013-07-08 02:12:00,
2013-07-07 22:17:00,71.8,47.4,29.88,North,0,0.0,0.0,42,0.00,,,0.00,WUHU216HW,2013-07-08 02:17:00,
2013-07-07 22:22:00,71.8,46.8,29.88,North,0,0.0,0.0,41,0.00,,,0.00,WUHU216HW,2013-07-08 02:22:00,
2013-07-07 22:27:00,71.8,46.8,29.88,North,0,0.0,0.0,41,0.00,,,0.00,WUHU216HW,2013-07-08 02:27:00,
2013-07-07 22:32:00,71.8,41.8,29.88,North,0,0.0,0.0,34,0.00,,,0.00,WUHU216HW,2013-07-08 02:32:00,
2013-07-07 22:37:00,71.6,29.5,29.88,North,0,0.0,0.0,21,0.00,,,0.00,WUHU216HW,2013-07-08 02:37:00,
2013-07-07 22:42:00,71.3,26.6,29.88,North,0,0.0,0.0,19,0.00,,,0.00,WUHU216HW,2013-07-08 02:42:00,
2013-07-07 22:47:00,71.3,33.3,29.88,North,0,0.0,0.0,25,0.00,,,0.00,WUHU216HW,2013-07-08 02:47:00,
2013-07-07 22:52:00,71.3,37.4,29.88,North,0,0.0,0.0,29,0.00,,,0.00,WUHU216HW,2013-07-08 02:52:00,
2013-07-07 22:57:00,71.3,34.3,29.88,North,0,0.0,0.0,26,0.00,,,0.00,WUHU216HW,2013-07-08 02:57:00,
2013-07-07 23:02:00,71.1,26.4,29.87,North,0,0.0,0.0,19,0.00,,,0.00,WUHU216HW,2013-07-08 03:02:00,
2013-07-07 23:07:00,70.9,21.4,29.87,North,0,0.0,0.0,16,0.00,,,0.00,WUHU216HW,2013-07-08 03:07:00,
2013-07-07 23:12:00,70.7,19.6,29.87,North,0,0.0,0.0,15,0.00,,,0.00,WUHU216HW,2013-07-08 03:12:00,
2013-07-07 23:17:00,70.4,11.3,29.87,North,0,0.0,0.0,1,0.00,,,0.00,WUHU216HW,2013-07-08 03:17:00,
2013-07-07 23:22:00,70.6,11.3,29.87,North,0,0.0,0.0,6,0.00,,,0.00,WUHU216HW,2013-07-08 03:22:00,
2013-07-07 23:27:00,70.6,11.3,29.86,North,0,0.0,0.0,6,0.01,,,0.01,WUHU216HW,2013-07-08 03:27:00,
2013-07-07 23:32:00,70.6,11.3,29.86,North,0,0.0,0.0,10,0.01,,,0.01,WUHU216HW,2013-07-08 03:32:00,
2013-07-07 23:37:00,70.4,11.3,29.86,North,0,0.0,0.0,1,0.01,,,0.01,WUHU216HW,2013-07-08 03:37:00,
2013-07-07 23:42:00,70.4,11.3,29.85,North,0,0.0,0.0,1,0.01,,,0.01,WUHU216HW,2013-07-08 03:42:00,
2013-07-07 23:47:00,70.4,11.3,29.85,North,0,0.0,0.0,1,0.01,,,0.01,WUHU216HW,2013-07-08 03:47:00,
2013-07-07 23:52:00,70.6,11.3,29.86,North,0,0.0,0.0,1,0.02,,,0.02,WUHU216HW,2013-07-08 03:52:00,
2013-07-07 23:57:00,70.6,11.3,29.86,North,0,0.0,0.0,1,0.02,,,0.02,WUHU216HW,2013-07-08 03:57:00,